DW8947 Weather Reports


Display with metric or nautical units.
time (UTC)temp
F
wind
direction
speed
MPH
gust
MPH
rain 1hr
in
rain 24hr
in
rain mn
in
humidity
%
barometer
mb
20260503220203 79 307 1.0 3.0 0.00 0.00 0.00 35 1009.8
20260503215704 79 328 1.0 3.0 0.00 0.00 0.00 36 1009.8
20260503215203 78 216 1.0 7.0 0.00 0.00 0.00 36 1009.8
20260503214704 78 338 2.0 3.0 0.00 0.00 0.00 38 1010.0
20260503213704 78 356 0.0 2.0 0.00 0.00 0.00 38 1010.1
20260503213203 78 291 1.0 2.0 0.00 0.00 0.00 40 1010.2
20260503212704 78 4 1.0 3.0 0.00 0.00 0.00 39 1010.2
20260503212204 78 300 1.0 2.0 0.00 0.00 0.00 40 1010.2
20260503211204 78 335 1.0 2.0 0.00 0.00 0.00 43 1010.3
20260503210203 78 313 1.0 2.0 0.00 0.00 0.00 44 1010.4
20260503205204 78 237 1.0 2.0 0.00 0.00 0.00 42 1010.4
20260503204704 78 92 1.0 2.0 0.00 0.00 0.00 42 1010.5
20260503203703 77 327 1.0 2.0 0.00 0.00 0.00 41 1010.6
20260503203203 77 290 1.0 3.0 0.00 0.00 0.00 40 1010.6
20260503202204 77 332 0.0 2.0 0.00 0.00 0.00 40 1010.7
20260503201703 77 348 1.0 3.0 0.00 0.00 0.00 41 1010.8
20260503201203 77 299 1.0 2.0 0.00 0.00 0.00 42 1010.8
20260503200703 77 273 1.0 2.0 0.00 0.00 0.00 41 1011.0
20260503194706 76 335 1.0 3.0 0.00 0.00 0.00 43 1011.2
20260503194204 76 320 0.0 2.0 0.00 0.00 0.00 44 1011.2
20260503193704 76 316 1.0 1.0 0.00 0.00 0.00 44 1011.3
20260503193204 76 325 0.0 3.0 0.00 0.00 0.00 45 1011.3
20260503192704 76 34 1.0 2.0 0.00 0.00 0.00 46 1011.4
20260503191204 75 318 0.0 2.0 0.00 0.00 0.00 46 1011.4
20260503190704 74 312 0.0 1.0 0.00 0.00 0.00 48 1011.5
20260503185204 73 315 0.0 2.0 0.00 0.00 0.00 49 1011.6
20260503184704 72 315 0.0 2.0 0.00 0.00 0.00 49 1011.7
20260503183704 72 173 1.0 3.0 0.00 0.00 0.00 50 1011.8
20260503183204 72 300 1.0 3.0 0.00 0.00 0.00 49 1011.9
20260503181703 71 308 1.0 3.0 0.00 0.00 0.00 51 1012.0
20260503181204 71 281 1.0 3.0 0.00 0.00 0.00 54 1012.0
20260503180204 70 273 2.0 3.0 0.00 0.00 0.00 53 1012.0
20260503175704 70 240 0.0 3.0 0.00 0.00 0.00 55 1012.0
20260503175204 69 311 1.0 3.0 0.00 0.00 0.00 55 1012.1
20260503174704 69 316 1.0 3.0 0.00 0.00 0.00 56 1012.2
20260503174204 69 193 1.0 2.0 0.00 0.00 0.00 55 1012.2
20260503173704 68 35 1.0 3.0 0.00 0.00 0.00 56 1012.2
20260503173204 68 15 1.0 2.0 0.00 0.00 0.00 56 1012.3
20260503172705 67 312 1.0 3.0 0.00 0.00 0.00 58 1012.4
20260503170205 65 288 0.0 2.0 0.00 0.00 0.00 65 1012.4
20260503131204 59 22 0.0 2.0 0.00 0.00 0.00 68 1012.1
20260503110704 60 265 0.0 2.0 0.00 0.00 0.00 64 1012.4
20260503110204 60 265 0.0 2.0 0.00 0.00 0.00 64 1012.3
20260503100204 57 17 0.0 2.0 0.00 0.00 0.00 75 1012.7
20260503090203 59 17 0.0 2.0 0.00 0.00 0.00 66 1012.5
20260503081204 63 121 0.0 2.0 0.00 0.00 0.00 56 1012.5
20260503080704 63 121 0.0 2.0 0.00 0.00 0.00 58 1012.4
20260503071204 63 39 0.0 2.0 0.00 0.00 0.00 58 1012.2
20260503060204 63 148 0.0 2.0 0.00 0.00 0.00 57 1012.4
20260503053204 64 102 0.0 1.0 0.00 0.00 0.00 58 1012.3
20260503052703 64 102 0.0 2.0 0.00 0.00 0.00 57 1012.3
20260503050704 64 88 1.0 2.0 0.00 0.00 0.00 57 1012.2
20260503050204 64 107 0.0 2.0 0.00 0.00 0.00 56 1012.2
20260503045704 64 88 0.0 2.0 0.00 0.00 0.00 57 1012.2
20260503042704 64 34 0.0 2.0 0.00 0.00 0.00 57 1011.9
20260503042204 65 13 0.0 2.0 0.00 0.00 0.00 57 1011.9
20260503041203 65 34 0.0 2.0 0.00 0.00 0.00 57 1011.8
20260503040704 65 71 1.0 3.0 0.00 0.00 0.00 56 1011.7
20260503040204 65 49 0.0 2.0 0.00 0.00 0.00 57 1011.7
20260503035704 65 23 0.0 2.0 0.00 0.00 0.00 57 1011.6
20260503033704 66 87 0.0 2.0 0.00 0.00 0.00 55 1011.4
20260503033205 66 19 0.0 1.0 0.00 0.00 0.00 56 1011.3
20260503032204 66 39 1.0 5.0 0.00 0.00 0.00 54 1011.3
20260503025204 67 39 0.0 2.0 0.00 0.00 0.00 54 1011.1
20260503022704 68 26 0.0 3.0 0.00 0.00 0.00 53 1011.1
20260503015704 70 16 2.0 5.0 0.00 0.00 0.00 48 1011.2
20260503014704 70 338 1.0 3.0 0.00 0.00 0.00 48 1011.3
20260503014204 70 36 1.0 2.0 0.00 0.00 0.00 48 1011.3
20260503013204 71 335 1.0 3.0 0.00 0.00 0.00 46 1011.3
20260503012204 71 264 2.0 3.0 0.00 0.00 0.00 47 1011.3
20260503010204 72 66 1.0 3.0 0.00 0.00 0.00 48 1011.2
20260503005704 71 331 1.0 3.0 0.00 0.00 0.00 47 1011.3
20260503003704 72 56 1.0 5.0 0.00 0.00 0.00 46 1011.3
20260503003204 72 350 1.0 3.0 0.00 0.00 0.00 47 1011.4
20260503002203 72 348 1.0 3.0 0.00 0.00 0.00 47 1011.4
20260503001704 72 29 1.0 6.0 0.00 0.00 0.00 48 1011.3
20260503000704 72 347 1.0 3.0 0.00 0.00 0.00 48 1011.4
20260502234704 72 6 2.0 7.0 0.00 0.00 0.00 46 1011.6
20260502234204 72 322 1.0 6.0 0.00 0.00 0.00 47 1011.7
20260502232204 73 350 2.0 5.0 0.00 0.00 0.00 48 1012.0
20260502231704 73 321 1.0 5.0 0.00 0.00 0.00 48 1012.0
20260502231205 73 355 1.0 3.0 0.00 0.00 0.00 49 1012.0
20260502230705 73 337 2.0 5.0 0.00 0.00 0.00 47 1012.2
20260502230205 73 313 1.0 3.0 0.00 0.00 0.00 48 1012.3
20260502225705 73 325 2.0 3.0 0.00 0.00 0.00 48 1012.4
20260502224705 73 286 1.0 3.0 0.00 0.00 0.00 48 1012.6
20260502223705 73 351 1.0 3.0 0.00 0.00 0.00 48 1012.7
20260502220705 73 89 2.0 6.0 0.00 0.00 0.00 48 1013.1